Regional Weather Roundup
Issued by NWS

Home | Current Version | Previous Version | Text Only | Print | Product List | Glossary On
Versions: 1 2 3 4 5 6 7 8 9 10 11 12 13 14 15 16 17 18 19 20 21 22 23 24 25 26 27 28 29 30 31 32 33 34 35 36 37 38 39 40 41 42 43 44 45 46
000
ASUS42 KFFC 062103
RWRGA
WEATHER ROUNDUP FOR GEORGIA
NATIONAL WEATHER SERVICE PEACHTREE CITY GA
400 PM EST FRI MAR 06 2015

NOTE: "FAIR" INDICATES FEW OR NO CLOUDS BELOW 12,000 FEET WITH NO
SIGNIFICANT WEATHER AND/OR OBSTRUCTIONS TO VISIBILITY.

* = USE WITH CAUTION. THE STATIONS MARKED WITH AN ASTERISK MAY NOT
REPORT WEATHER SUCH AS PRECIPITATION, FOG, OR THUNDER AND ARE NOT
QUALITY CONTROLLED BY NWS.

THE REMARK "TC" DENOTES TEMPERATURE READING IN DEGREES CELSIUS.

GAZ001>058-062200-
NORTH GEORGIA

CITY           SKY/WX    TMP DP  RH WIND       PRES   REMARKS
ATLANTA        MOSUNNY   50  30  46 NW8       30.37F
ATHENS         SUNNY     51  23  33 CALM      30.37S
CHAMBLEE       SUNNY     49  30  48 W12       30.37F
PEACHTREE CITY SUNNY     50  30  46 W7        30.38F
ROME           SUNNY     48  29  47 NE7       30.41F
WEST ATLANTA   SUNNY     48  29  47 W8        30.38F
GAINESVILLE    SUNNY     47  27  45 W9        30.36F
CARTERSVILLE   SUNNY     46  29  51 CALM      30.41F


CITY           SKY/WX    TMP DP  RH WIND       PRES   REMARKS
DALTON*        SUNNY     43  28  56 CALM      30.42F
LAWRENCEVILLE* MOSUNNY   48  25  40 SW6       30.36S
MARIETTA       MOSUNNY   49  30  48 W12       30.37F
KENNESAW*      MOSUNNY   46  28  49 NW7       30.40F
$$

GAZ059>098-102>109-062200-
CENTRAL GEORGIA

CITY           SKY/WX    TMP DP  RH WIND       PRES   REMARKS
AUGUSTA-BUSH   CLOUDY    51  30  44 NW7       30.38S
AUGUSTA-DANIEL MOSUNNY   51  29  42 NW7       30.37F
COLUMBUS       MOSUNNY   52  31  44 NE7       30.38F
MACON          PTSUNNY   50  33  52 N7        30.38S
ROBINS AFB     CLOUDY    51  35  54 NW8       30.37F


CITY           SKY/WX    TMP DP  RH WIND       PRES   REMARKS
LAGRANGE*      MOSUNNY   54  36  50 CALM      30.38F
SYLVANIA*      CLOUDY    47  38  70 N7        30.38S
MILLEDGEVILLE* MOSUNNY   52  36  54 N3        30.38F
$$

GAZ099>101-110>166-062200-
SOUTH GEORGIA

CITY           SKY/WX    TMP DP  RH WIND       PRES   REMARKS
SAVANNAH       CLOUDY    47  35  63 N7        30.37F
VALDOSTA       CLOUDY    48  46  93 N10       30.35R FOG
ALMA           CLOUDY    46  38  73 VRB7      30.37R
ST SIMONS      CLOUDY    45  39  79 N13G18    30.35R
FT STEWART     CLOUDY    46  37  69 N7        30.35S
ALBANY         CLOUDY    48  39  71 NE8       30.40S
HUNTER AFB     CLOUDY    46  37  70 N9        30.35S
MOODY AFB      CLOUDY    46  43  87 N13       30.34S
BRUNSWICK      CLOUDY    46  41  81 N6        30.37R


CITY           SKY/WX    TMP DP  RH WIND       PRES   REMARKS
BAINBRIDGE*    CLOUDY    48  41  76 N9        30.39R
MOULTRIE*      CLOUDY    46  45  93 N7        30.37R
VIDALIA*       CLOUDY    48  37  66 N7        30.37F
WAYCROSS*      CLOUDY    48  43  83 N9        30.37R
DOUGLAS*       CLOUDY    46  39  76 NE12      30.38S
$$


USA.gov is the U.S. government's official web portal to all federal, state and local government web resources and services.